Location: Étavigny
(49.1201°N, 2.9800°E)
Time: 22:41:37
(UTC+00:00)

COSMOS 2455 - Pass Details

Date: 28 January 2023
Orbit: 898 x 911 km, 67.1° (Epoch: 29 March)

Event Time Altitude Azimuth Distance (km) Brightness Sun altitude
Rises 18:14:24 0° 214° (SW) 3,511 6.6 -15.7°
Reaches altitude 10° 18:16:53 10° 214° (SW) 2,576 5.8 -16.1°
Maximum altitude 18:22:52 87° 302° (WNW) 913 2.8 -17.1°
Enters shadow 18:27:58 15° 34° (NE) 2,240 4.5 -17.9°
